Topeka, KS

10:33 AM CDT on April 24, 2018 (GMT -0500)
Billard Municipal

Weather History for KTOP - September, 2011

Change the Weather History Date:

Wednesday, September 14, 2011

  Actual Average Record
Temperature  
Mean Temperature 60 °F 69 °F  
Max Temperature 71 °F 81 °F 100 °F (1939)
Min Temperature 49 °F 57 °F 37 °F (1974)
Degree Days  
Heating Degree Days 5 2  
Month to date heating degree days 16 10  
Since 1 July heating degree days 16 12  
Cooling Degree Days 0 6  
Month to date cooling degree days 108 105  
Year to date cooling degree days 1862 1333  
Growing Degree Days 12 (Base 50)    
Moisture  
Dew Point 50 °F    
Average Humidity 69    
Maximum Humidity 86    
Minimum Humidity 51    
Precipitation  
Precipitation 0.03 in 0.12 in 4.59 in (1930)
Month to date precipitation 0.71 1.72  
Year to date precipitation 23.36 28.29  
Snow  
Snow 0.00 in 0.00 in T in (1930)
Month to date snowfall 0.0 0.0  
Year to date snowfall 38.5 11.3  
Since 1 July snowfall 0.0 0.0  
Snow Depth 0.00 in    
Sea Level Pressure  
Sea Level Pressure 30.15 in    
Wind  
Wind Speed 10 mph (NNE)    
Max Wind Speed 18 mph    
Max Gust Speed 26 mph    
Visibility 10 miles    
Events Rain    
T = Trace of Precipitation, MM = Missing Value Source: NWS Daily Summary

Daily Weather History Graph

Daily Weather History Graph

Search for Another Location

Airport or City:

Astronomy

Sep. 14, 2011 Rise Set
Actual Time 7:02 AM CDT 7:32 PM CDT
Civil Twilight 6:35 AM CDT 7:59 PM CDT
Nautical Twilight 6:04 AM CDT 8:31 PM CDT
Astronomical Twilight 5:31 AM CDT 9:03 PM CDT
Moon 8:19 PM CDT (9/14) 9:12 AM CDT (9/14)
Length of Visible Light 13h 23m
Length of Day
12h 30m
Waning Gibbous, 95% of the Moon is Illuminated
Sep 14
Waning Gibbous
Sep 20
Last Quarter
Sep 27
New
Oct 3
First Quarter
Oct 11
Full

Hourly Weather History & Observations

Time (CDT) Temp. Dew Point Humidity Pressure Visibility Wind Dir Wind Speed Gust Speed Precip Events Conditions
12:53 AM 62.6 °F 53.6 °F 72% 30.03 in 10.0 mi North 3.5 mph - N/A   Clear
1:53 AM 64.4 °F 53.6 °F 68% 30.04 in 10.0 mi North 4.6 mph - N/A   Clear
2:53 AM 62.1 °F 54.0 °F 75% 30.02 in 10.0 mi North 8.1 mph - 0.00 in   Partly Cloudy
3:53 AM 61.0 °F 53.1 °F 75% 30.02 in 10.0 mi North 8.1 mph - N/A   Clear
4:53 AM 62.6 °F 51.8 °F 68% 30.06 in 10.0 mi North 8.1 mph 17.3 mph N/A   Mostly Cloudy
5:53 AM 62.1 °F 50.0 °F 65% 30.04 in 10.0 mi NE 8.1 mph - N/A   Overcast
6:53 AM 60.1 °F 51.1 °F 72% 30.06 in 9.0 mi NNE 10.4 mph - 0.01 in Rain Rain
7:53 AM 57.9 °F 53.1 °F 84% 30.09 in 10.0 mi North 9.2 mph - 0.01 in Rain Light Rain
8:53 AM 57.9 °F 54.0 °F 87% 30.12 in 10.0 mi North 6.9 mph - 0.01 in Rain Light Rain
9:53 AM 59.0 °F 54.0 °F 83% 30.12 in 10.0 mi NNE 9.2 mph - 0.00 in Rain Light Rain
10:53 AM 59.0 °F 54.0 °F 83% 30.16 in 10.0 mi NNE 9.2 mph 18.4 mph 0.00 in   Overcast
11:53 AM 61.0 °F 54.0 °F 78% 30.18 in 10.0 mi NNE 13.8 mph - N/A   Overcast
12:53 PM 64.9 °F 53.1 °F 65% 30.18 in 10.0 mi NE 16.1 mph 25.3 mph N/A   Mostly Cloudy
1:53 PM 69.1 °F 52.0 °F 54% 30.18 in 10.0 mi North 15.0 mph 23.0 mph N/A   Mostly Cloudy
2:53 PM 70.0 °F 53.1 °F 55% 30.18 in 10.0 mi North 17.3 mph 20.7 mph N/A   Overcast
3:53 PM 68.0 °F 51.8 °F 56% 30.18 in 10.0 mi North 15.0 mph - N/A   Mostly Cloudy
4:53 PM 68.0 °F 52.0 °F 56% 30.18 in 10.0 mi NNE 16.1 mph 24.2 mph N/A   Mostly Cloudy
5:53 PM 66.9 °F 50.0 °F 54% 30.19 in 10.0 mi NNE 16.1 mph 23.0 mph N/A   Scattered Clouds
6:53 PM 63.0 °F 48.0 °F 58% 30.20 in 10.0 mi North 8.1 mph - N/A   Clear
7:53 PM 60.1 °F 44.1 °F 55% 30.22 in 10.0 mi North 6.9 mph - N/A   Clear
8:53 PM 57.9 °F 39.9 °F 51% 30.25 in 10.0 mi North 6.9 mph - N/A   Clear
9:53 PM 55.0 °F 39.9 °F 57% 30.27 in 10.0 mi North 8.1 mph - N/A   Clear
10:53 PM 53.6 °F 39.2 °F 58% 30.30 in 10.0 mi NNE 9.2 mph - N/A   Clear
11:53 PM 51.1 °F 39.0 °F 63% 30.32 in 10.0 mi NNE 8.1 mph - N/A   Clear